Location: Bessat
(45.8735°N, 1.9924°E)
Time: 23:07:11
(UTC+00:00)

Cosmos 1743 - Pass Details

Date: 11 May 2021
Orbit: 510 x 525 km, 82.6° (Epoch: 24 June)

Event Time Altitude Azimuth Distance (km) Brightness Sun altitude
Rises 22:43:55 0° 344° (NNW) 2,653 7.7 -24.4°
Reaches altitude 10° 22:46:07 10° 338° (NNW) 1,762 6.5 -24.5°
Enters shadow 22:49:24 41° 284° (WNW) 774 3.7 -24.6°
